SCP
0 0 0 0 0 0 0 0 0 0 0 0 0 0 0 0 0 0 0 0 0 0 0 0 0 0 0 0 0 0 0 0 0 0 0 0 0 0
0 0 0 0 0 0 0 0 0 0 0 0 0 0 0 0 0 0 0 0 0 0 0 0 0 0 0 0 0 0 0 0 0 0 0 0 0 0
0 0 0 0 0 0 0 0 0 0 0 0 0 0 0 0 0 0 0 0 0 0 0 0 0 0 0 0 0 0 0 0 0 0 0 0 0 0
0 0 0 0 0 0 0 0 0 0 0 0 0 0 0 0 0 0 0 0 0 0 0 0 0 0 0 0 0 0 0 0 0 0 0 0 0 0
0 0 0 0 0 0 0 0 0 0 0 0 0 0 0 0 0 0 0 0 0 0 0 0 0 0 0 0 0 0 0 0 0 0 0 0 0 0
0 0 0 0 0 0 0 0 0 0 0 0 0 0 0 0 0 0 0 0 0 0 0 0 0 0 0 0 0 0 0 0 0 0 0 0 0 0
0 0 0 0 0 0 0 0 0 0 0 0 0 0 0 0 0 0 0 0 0 0 0 0 0 0 0 0 0 0 0 0 0 0 0 0 0 0
0 0 0 0 0 0 0 0 0 0 0 0 0 0 0 0 0 0 0 0 0 0 0 0 0 0 0 0 0 0 0 0 0 0 0 0 0 0
0 0 0 0 0 0 0 0 0 0 0 0 0 0 0 0 0 0 0 0 0 0 0 0 0 0 0 0 0 0 0 0 0 0 0 0 0 0
0 0 0 0 0 0 0 0 0 0 0 0 0 0 0 0 0 0 0 0 0 0 0 0 0 0 0 0 0 0 0 0 0 0 0 0 0 0
0 0 0 0 0 0 0 0 0 0 0 0 0 0 0 0 0 0 0 0 0 0 0 0 0 0 0 0 0 0 0 0 0 0 0 0 0 0
0 0 0 0 0 0 0 0 0 0 0 0 0 0 0 0 0 0 0 0 0 0 0 0 0 0 0 0 0 0 0 0 0 0 0 0 0 0
0 0 0 0 0 0 0 0 0 0 0 0 0 0 0 0 0 0 0 0 0 0 0 0 0 0 0 0 0 0 0 0 0 0 0 0 0 0
0 0 0 0 0 0 0 0 0 0 0 0 0 0 0 0 0 0 0 0 0 0 0 0 0 0 0 0 0 0 0 0 0 0 0 0 0 0
0 0 0 0 0 0 0 0 0 0 0 0 0 0 0 0 0 0 0 0 0 0 0 0 0 0 0 0 0 0 0 0 0 0 0 0 0 0
0 0 0 0 0 0 0 0 0 0 0 0 0 0 0 0 0 0 0 0 0 0 0 0 0 0 0 0 0 0 0 0 0 0 0 0 0 0
0 0 0 0 0 0 0 0 0 0 0 0 0 0 0 0 0 0 0 0 0 0 0 0 0 0 0 0 0 0 0 0 0 0 0 0 0 0
0 0 0 0 0 0 0 0 0 0 0 0 0 0 0 0 0 0 0 0 0 0 0 0 0 0 0 0 0 0 0 0 0 0 0 0 0 0
0 0 0 0 0 0 0 0 0 0 0 0 0 0 0 0 0 0 0 0 0 0 0 0 0 0 0 0 0 0 0 0 0 0 0 0 0 0
0 0 0 0 0 0 0 0 0 0 0 0 0 0 0 0 0 0 0 0 0 0 0 0 0 0 0 0 0 0 0 0 0 0 0 0 0 0
0 0 0 0 0 0 0 0 0 0 0 0 0 0 0 0 0 0 0 0 0 0 0 0 0 0 0 0 0 0 0 0 0 0 0 0 0 0
0 0 0 0 0 0 0 0 0 0 0 0 0 0 0 0 0 0 0 0 0 0 0 0 0 0 0 0 0 0 0 0 0 0 0 0 0 0
0 0 0 0 0 0 0 0 0 0 0 0 0 0 0 0 0 0 0 0 0 0 0 0 0 0 0 0 0 0 0 0 0 0 0 0 0 0
Wind_Speed
3 3 3 3 4 4 5 5 6 8 8 7 6 7 7 8 9 10 11 13 16 17 17 17 16 16 16 17 17 18 18 17 17 17 17 17 17 18
3 4 4 3 4 4 5 5 6 7 9 8 8 9 10 8 11 11 11 15 15 16 16 16 16 16 16 16 17 17 17 17 15 15 16 16 16 16
3 4 5 5 4 4 5 5 5 6 10 10 9 10 12 12 10 10 10 10 9 14 16 16 16 16 15 16 16 15 15 15 14 14 15 14 14 14
4 5 5 4 6 5 5 6 6 7 9 12 10 10 12 12 11 12 10 9 9 12 15 15 16 15 15 15 14 14 14 13 14 13 13 13 13 13
5 5 6 6 6 5 6 6 6 6 7 9 10 9 9 9 11 11 11 9 9 10 12 13 14 14 14 13 13 13 13 12 13 13 13 12 13 13
5 5 6 6 7 7 6 7 7 7 7 8 8 8 8 9 9 9 10 9 9 9 10 10 12 12 12 12 12 12 12 11 12 11 11 11 11 11
5 5 6 6 8 7 6 7 7 6 7 7 8 8 8 8 8 8 9 10 10 7 8 8 7 7 7 8 9 11 12 12 11 10 10 11 10 10
5 5 5 6 7 9 10 10 9 8 8 7 7 8 10 9 9 8 9 9 8 6 8 8 7 6 6 5 9 11 11 11 11 11 10 10 10 10
5 5 5 5 7 6 7 9 9 10 10 9 9 10 10 10 10 10 9 9 9 8 8 7 6 6 6 6 9 10 10 11 12 11 10 10 10 9
4 5 6 6 5 7 7 7 8 7 8 8 8 9 9 9 9 9 9 9 8 6 6 6 6 6 7 6 7 9 10 11 11 10 10 10 9 9
4 5 5 6 7 9 7 7 8 7 6 8 10 10 12 11 9 6 6 6 6 6 4 4 5 6 6 5 5 8 10 10 11 10 10 10 10 9
4 4 5 6 8 9 7 7 7 8 8 8 7 7 7 7 9 6 5 5 6 5 4 4 5 5 5 4 5 6 7 9 10 10 9 10 10 6
3 3 3 6 8 8 8 6 7 9 7 6 6 6 6 5 5 5 5 5 5 5 5 5 4 4 4 5 5 5 6 6 6 7 7 9 9 7
3 3 3 6 8 8 7 7 8 8 4 4 5 5 5 5 5 6 6 5 5 6 6 5 4 4 5 5 5 5 6 6 6 6 5 7 7 8
3 4 5 6 7 5 5 7 6 4 4 4 4 5 5 6 6 5 6 5 5 4 4 5 4 4 4 4 5 5 6 5 6 6 6 5 5 5
2 3 5 5 4 5 5 4 3 3 4 4 4 5 5 5 5 5 5 5 4 4 4 5 5 5 4 5 5 5 5 5 5 6 5 5 5 4
3 2 2 3 3 3 3 4 4 4 4 4 4 4 4 5 5 5 5 5 4 5 5 5 5 4 4 5 4 4 4 4 5 6 5 5 5 5
2 1 2 2 3 3 4 4 4 4 4 4 4 4 4 5 5 5 5 4 4 5 5 5 5 4 3 2 2 4 4 5 5 5 5 4 5 5
1 1 2 3 3 3 4 4 4 4 4 4 4 4 4 4 4 5 5 5 4 4 4 4 4 4 4 5 4 3 4 5 5 5 4 4 4 5
1 2 2 3 3 3 4 4 4 4 4 4 4 4 4 4 4 5 5 5 5 5 5 4 4 4 4 4 4 4 6 5 4 5 5 4 3 4
2 2 2 3 3 3 4 4 4 4 4 4 4 4 4 4 4 4 5 7 6 5 5 5 5 6 4 3 2 3 4 5 5 4 5 4 4 4
2 3 3 3 3 3 4 4 4 3 4 4 4 4 4 4 4 5 5 5 4 4 5 4 4 4 3 2 3 4 5 5 6 6 5 3 2 3
3 3 3 3 3 3 3 4 4 4 4 4 4 4 4 4 4 4 5 4 4 4 4 4 3 3 3 3 3 4 5 6 5 5 5 6 5 4
Wind_Direction
266 271 276 278 277 279 279 281 287 296 300 307 310 311 312 309 309 306 308 312 309 308 308 308 307 307 307 306 306 304 303 300 296 294 294 292 289 285
270 274 279 279 279 277 274 273 273 280 287 298 306 307 310 307 309 309 309 308 304 306 308 308 307 307 306 306 306 305 303 303 300 299 296 293 291 288
271 275 281 282 280 279 276 272 271 274 280 290 299 306 309 310 312 312 309 309 306 306 308 308 309 308 308 307 307 307 307 306 303 301 303 300 296 292
277 280 283 283 281 282 281 278 277 277 281 290 299 307 308 310 312 314 313 310 307 310 310 310 312 311 312 313 313 312 311 310 309 305 304 305 300 296
275 279 283 284 283 286 286 285 284 284 282 287 295 302 304 311 315 313 314 312 311 310 308 310 311 314 316 315 316 317 317 316 315 311 308 306 307 303
277 278 280 281 284 289 289 290 292 293 291 290 292 300 306 313 314 315 316 318 315 313 313 314 314 316 318 321 322 322 322 322 320 317 314 310 309 306
282 281 280 287 292 291 292 297 298 294 294 293 294 301 307 315 315 315 313 316 314 317 319 320 319 318 321 324 326 332 333 332 327 321 320 320 317 314
285 290 290 285 290 290 293 297 297 292 294 293 294 297 304 309 311 312 314 315 314 326 320 314 319 318 324 324 334 337 338 338 338 335 330 325 322 320
286 293 298 298 297 295 297 296 294 288 284 285 289 295 301 307 310 310 310 308 305 314 313 306 318 318 323 329 338 340 342 343 342 340 336 334 332 329
286 290 296 304 308 307 306 304 302 299 297 294 294 297 301 305 305 301 301 302 299 306 316 304 316 317 321 324 341 343 340 340 340 338 337 338 334 330
292 293 296 300 312 314 309 306 306 309 312 307 306 307 312 313 314 310 312 312 311 315 328 311 312 316 314 315 333 340 338 339 341 338 338 339 337 329
297 296 298 305 313 313 309 306 307 314 319 318 317 320 321 325 329 322 313 308 310 310 335 325 314 324 316 313 325 329 331 334 339 341 341 341 340 333
298 301 307 314 315 314 310 304 309 315 313 317 320 324 328 331 334 331 323 310 305 300 311 313 306 312 302 305 313 323 329 328 331 335 341 345 345 342
301 308 317 321 321 318 316 321 322 317 313 319 323 327 329 330 329 327 322 316 302 296 305 306 294 302 305 305 309 319 324 328 330 331 333 339 341 341
317 327 326 323 321 321 336 336 329 323 322 323 325 326 325 320 320 321 321 317 309 305 312 312 305 299 294 295 303 310 317 325 332 335 337 337 332 330
324 329 334 337 335 338 338 339 337 332 326 321 321 322 324 327 330 329 325 328 328 330 332 327 319 312 304 304 301 307 316 318 328 333 332 329 330 332
328 335 342 342 345 345 341 340 338 335 334 329 324 325 329 331 331 332 326 327 329 329 337 340 327 309 300 304 309 316 321 322 326 332 335 335 337 339
348 346 341 338 336 335 333 333 335 336 333 328 325 326 327 328 329 331 331 330 331 331 331 332 332 326 310 296 318 313 327 330 331 335 335 335 339 343
7 355 337 332 331 329 325 325 327 329 326 324 325 325 324 324 326 330 333 331 330 328 328 328 333 339 340 341 344 349 326 326 331 339 343 337 331 335
2 343 331 327 324 320 321 323 325 326 325 326 327 325 324 324 326 329 329 330 328 326 330 336 342 340 331 322 321 327 335 322 329 337 337 333 329 325
339 329 321 319 317 315 314 317 318 320 323 324 325 325 323 322 323 323 323 326 325 326 331 334 330 323 305 300 315 331 344 353 340 323 327 333 339 348
327 320 316 315 313 310 311 314 316 318 321 320 320 318 318 317 317 318 321 324 325 326 323 326 330 334 338 346 339 335 338 346 356 356 349 330 322 344
320 317 315 312 307 305 306 308 310 312 315 313 311 312 314 316 316 315 316 320 322 325 329 335 341 345 341 331 332 335 341 345 348 358 5 8 4 338